Location: Unspecified
(0.0000°N, 0.0000°E)
Time: 20:45:35
(UTC+00:00)

deb Explorer IX - All Passes

Search period start: 16 September 2019 00:00
Search period end: 26 September 2019 00:00
Orbit: 543 x 1107 km, 38.8° (Epoch: 14 September)

Date Brightness Start Highest point End Pass type
(mag) Time Alt. Az. Time Alt. Az. Time Alt. Az.
16 Sep - 00:03:57 10° WSW 00:09:48 40° NW 00:14:49 10° NNE night (unlit)
16 Sep - 10:58:00 10° NW 11:02:45 78° NE 11:08:23 10° SE daylight
16 Sep - 12:46:49 10° WSW 12:50:10 16° SW 12:53:49 10° S daylight
16 Sep - 21:54:15 10° SSW 22:00:34 37° SE 22:06:09 10° ENE night (unlit)
16 Sep - 23:41:49 10° WSW 23:47:48 39° NW 23:52:58 10° NNE night (unlit)
17 Sep - 10:36:13 10° NW 10:40:50 81° NE 10:46:17 10° SE daylight
17 Sep - 12:25:14 10° WSW 12:28:14 15° SW 12:31:29 10° S daylight
17 Sep - 21:32:03 10° SSW 21:38:32 38° SE 21:44:19 10° ENE night (unlit)
17 Sep - 23:19:41 10° WSW 23:25:48 39° NW 23:31:07 10° NNE night (unlit)
18 Sep - 10:14:27 10° NW 10:18:56 84° NE 10:24:12 10° SE daylight
18 Sep - 12:03:42 10° WSW 12:06:18 14° SW 12:09:07 10° S daylight
18 Sep - 21:09:51 10° SSW 21:16:29 40° SE 21:22:27 10° ENE visible
18 Sep - 22:57:34 10° WSW 23:03:47 39° NW 23:09:14 10° NNE night (unlit)
19 Sep - 09:52:39 10° NW 09:57:03 87° NE 10:02:09 10° SE daylight
19 Sep - 11:42:14 10° WSW 11:44:24 13° SW 11:46:42 10° S daylight
19 Sep - 20:47:40 10° SSW 20:54:26 42° SE 21:00:35 10° ENE visible
19 Sep - 22:35:26 10° WSW 22:41:46 38° NW 22:47:21 10° NNE night (unlit)
20 Sep - 09:30:53 10° NW 09:35:11 89° SSW 09:40:07 10° SE daylight
20 Sep - 11:20:54 10° SW 11:22:31 11° SSW 11:24:12 10° SSW daylight
20 Sep - 20:25:30 10° SSW 20:32:23 44° SE 20:38:42 10° ENE visible
20 Sep - 22:13:19 10° WSW 22:19:44 38° NW 22:25:27 10° NNE night (unlit)
21 Sep - 09:09:07 10° NW 09:13:20 86° SW 09:18:07 10° SE daylight
21 Sep - 10:59:52 10° SW 11:00:38 10° SSW 11:01:24 10° SSW daylight
21 Sep - 20:03:21 10° SSW 20:10:18 45° SE 20:16:47 10° ENE visible
21 Sep - 21:51:12 10° WSW 21:57:41 37° NW 22:03:32 10° NNE visible
22 Sep - 08:47:20 10° NW 08:51:29 82° SW 08:56:07 10° SE daylight
22 Sep - 19:41:13 10° SSW 19:48:14 47° SE 19:54:51 10° ENE visible
22 Sep - 21:29:06 10° WSW 21:35:38 37° NW 21:41:36 10° NNE visible
23 Sep - 08:25:34 10° NW 08:29:39 78° SW 08:34:09 10° SE daylight
23 Sep - 19:19:05 10° SSW 19:26:09 48° SE 19:32:55 10° ENE visible
23 Sep - 21:07:01 10° WSW 21:13:35 36° NW 21:19:40 10° NNE visible
24 Sep - 08:03:47 10° NW 08:07:51 73° SW 08:12:13 10° SE daylight
24 Sep - 18:57:01 10° SSW 19:04:04 50° SE 19:10:57 10° ENE visible
24 Sep - 20:44:56 10° WSW 20:51:32 36° NW 20:57:42 10° NNE visible
25 Sep - 07:42:00 10° NW 07:46:02 69° SW 07:50:17 10° SE daylight
25 Sep - 16:53:24 10° SSE 16:54:05 10° SE 16:54:46 10° SE daylight
25 Sep - 18:34:56 10° SSW 18:41:59 51° SE 18:48:58 10° ENE visible
25 Sep - 20:22:54 10° WSW 20:29:28 35° NW 20:35:43 10° NNE visible
